| time (UTC) | temp F | wind direction | speed knots | gust knots | rain 1hr in | rain 24hr in | rain mn in | humidity % | barometer mb |
| 20260506164520 | 77 | 257 | 0.0 | 7.8 | 0.00 | 0.00 | 0.00 | 1 | 1009.6 |
| 20260506163034 | 77 | 133 | 0.0 | 9.6 | 0.00 | 0.00 | 0.00 | 1 | 1009.6 |
| 20260506161514 | 77 | 254 | 0.0 | 6.1 | 0.00 | 0.00 | 0.00 | 1 | 1009.3 |
| 20260506160007 | 76 | 218 | 0.0 | 4.3 | 0.00 | 0.00 | 0.00 | 1 | 1009.3 |
| 20260506154505 | 76 | 262 | 0.0 | 4.3 | 0.00 | 0.00 | 0.00 | 1 | 1009.7 |
| 20260506153124 | 76 | 205 | 0.0 | 7.0 | 0.00 | 0.00 | 0.00 | 1 | 1009.6 |
| 20260506151554 | 76 | 264 | 0.9 | 8.7 | 0.00 | 0.00 | 0.00 | 1 | 1009.6 |
| 20260506150050 | 76 | 217 | 0.9 | 6.1 | 0.00 | 0.00 | 0.00 | 1 | 1009.5 |
| 20260506144546 | 75 | 223 | 0.0 | 8.7 | 0.00 | 0.00 | 0.00 | 1 | 1009.4 |
| 20260506143041 | 75 | 212 | 0.9 | 12.2 | 0.00 | 0.00 | 0.00 | 1 | 1009.4 |
| 20260506141536 | 75 | 243 | 2.6 | 7.8 | 0.00 | 0.00 | 0.00 | 1 | 1009.3 |
| 20260506140034 | 74 | 153 | 0.0 | 8.7 | 0.00 | 0.00 | 0.00 | 1 | 1009.3 |
| 20260506134528 | 74 | 245 | 0.9 | 7.0 | 0.00 | 0.00 | 0.00 | 1 | 1009.3 |
| 20260506133024 | 73 | 203 | 2.6 | 7.0 | 0.00 | 0.00 | 0.00 | 1 | 1009.4 |
| 20260506131520 | 73 | 136 | 0.0 | 8.7 | 0.00 | 0.00 | 0.00 | 1 | 1009.5 |
| 20260506130014 | 73 | 164 | 0.0 | 0.0 | 0.00 | 0.00 | 0.00 | 1 | 1009.5 |
| 20260506124509 | 72 | 160 | 0.0 | 5.2 | 0.00 | 0.00 | 0.00 | 1 | 1009.4 |
| 20260506123008 | 72 | 218 | 0.0 | 10.4 | 0.00 | 0.00 | 0.00 | 1 | 1009.3 |
| 20260506121614 | 72 | 200 | 0.9 | 7.8 | 0.00 | 0.00 | 0.00 | 1 | 1009.4 |
| 20260506120056 | 72 | 151 | 0.0 | 0.0 | 0.00 | 0.00 | 0.00 | 1 | 1009.2 |
| 20260506114552 | 72 | 240 | 0.0 | 0.9 | 0.00 | 0.00 | 0.00 | 1 | 1009.0 |
| 20260506113048 | 71 | 134 | 0.0 | 7.0 | 0.00 | 0.00 | 0.00 | 1 | 1008.6 |
| 20260506111543 | 71 | 188 | 0.0 | 3.5 | 0.00 | 0.00 | 0.00 | 1 | 1008.4 |
| 20260506110042 | 71 | 179 | 0.0 | 5.2 | 0.00 | 0.00 | 0.00 | 1 | 1008.0 |
| 20260506104535 | 71 | 104 | 0.0 | 0.0 | 0.00 | 0.00 | 0.00 | 1 | 1008.1 |
| 20260506103030 | 71 | 133 | 0.0 | 0.0 | 0.00 | 0.00 | 0.00 | 1 | 1007.9 |
| 20260506101526 | 71 | 132 | 0.0 | 0.0 | 0.00 | 0.00 | 0.00 | 1 | 1007.8 |
| 20260506100021 | 71 | 240 | 0.0 | 7.0 | 0.00 | 0.00 | 0.00 | 1 | 1007.3 |
| 20260506094517 | 71 | 165 | 0.0 | 5.2 | 0.00 | 0.00 | 0.00 | 1 | 1007.2 |
| 20260506093012 | 71 | 151 | 0.0 | 4.3 | 0.00 | 0.00 | 0.00 | 1 | 1007.7 |
| 20260506091508 | 70 | 202 | 0.0 | 5.2 | 0.00 | 0.00 | 0.00 | 1 | 1007.3 |
| 20260506090003 | 70 | 160 | 0.0 | 0.0 | 0.00 | 0.00 | 0.00 | 1 | 1007.1 |
| 20260506084632 | 71 | 164 | 0.0 | 0.0 | 0.00 | 0.00 | 0.00 | 1 | 1007.1 |
| 20260506083054 | 71 | 147 | 0.0 | 0.0 | 0.00 | 0.00 | 0.00 | 1 | 1006.9 |
| 20260506081552 | 71 | 136 | 0.0 | 0.0 | 0.00 | 0.00 | 0.00 | 1 | 1007.0 |
| 20260506073036 | 70 | 171 | 0.0 | 7.8 | 0.00 | 0.00 | 0.00 | 1 | 1006.7 |
| 20260506071532 | 70 | 183 | 0.0 | 9.6 | 0.00 | 0.00 | 0.00 | 1 | 1006.9 |
| 20260506061514 | 69 | 162 | 0.0 | 3.5 | 0.00 | 0.00 | 0.00 | 1 | 1007.5 |
| 20260506050115 | 72 | 240 | 0.0 | 9.6 | 0.00 | 0.00 | 0.00 | 5 | 1007.6 |
| 20260506044547 | 72 | 214 | 0.0 | 6.1 | 0.00 | 0.00 | 0.00 | 9 | 1007.8 |
| 20260506043043 | 73 | 152 | 0.0 | 0.9 | 0.00 | 0.00 | 0.00 | 13 | 1007.8 |
| 20260506041552 | 73 | 207 | 0.0 | 0.0 | 0.00 | 0.00 | 0.00 | 17 | 1008.0 |
| 20260506040033 | 73 | 210 | 0.0 | 5.2 | 0.00 | 0.00 | 0.00 | 19 | 1008.0 |
| 20260506034543 | 73 | 153 | 0.0 | 7.8 | 0.00 | 0.00 | 0.00 | 19 | 1007.5 |
| 20260506033024 | 73 | 155 | 0.9 | 10.4 | 0.00 | 0.00 | 0.00 | 21 | 1007.6 |
| 20260506031520 | 73 | 159 | 0.0 | 0.0 | 0.00 | 0.00 | 0.00 | 21 | 1007.8 |
| 20260506030015 | 73 | 239 | 0.0 | 3.5 | 0.00 | 0.00 | 0.00 | 22 | 1007.8 |
| 20260506024511 | 73 | 211 | 0.0 | 6.1 | 0.00 | 0.00 | 0.00 | 21 | 1007.5 |
| 20260506023007 | 72 | 244 | 0.0 | 4.3 | 0.00 | 0.00 | 0.00 | 21 | 1007.3 |
| 20260506021502 | 73 | 153 | 0.0 | 3.5 | 0.00 | 0.00 | 0.00 | 25 | 1007.4 |
| 20260506020059 | 73 | 166 | 0.0 | 5.2 | 0.00 | 0.00 | 0.00 | 28 | 1007.4 |
| 20260506014554 | 73 | 149 | 0.0 | 0.0 | 0.00 | 0.00 | 0.00 | 31 | 1007.3 |
| 20260506013055 | 73 | 117 | 0.9 | 5.2 | 0.00 | 0.00 | 0.00 | 33 | 1007.2 |
| 20260506011548 | 73 | 136 | 0.0 | 0.9 | 0.00 | 0.00 | 0.00 | 35 | 1007.1 |
| 20260506010041 | 73 | 138 | 0.0 | 4.3 | 0.00 | 0.00 | 0.00 | 37 | 1007.0 |
| 20260506004536 | 74 | 95 | 0.0 | 10.4 | 0.00 | 0.00 | 0.00 | 39 | 1006.6 |
| 20260506003031 | 74 | 166 | 0.0 | 0.0 | 0.00 | 0.00 | 0.00 | 34 | 1007.0 |
| 20260506001527 | 74 | 148 | 0.0 | 4.3 | 0.00 | 0.00 | 0.00 | 32 | 1007.3 |
| 20260506000023 | 74 | 139 | 0.0 | 4.3 | 0.00 | 0.00 | 0.00 | 31 | 1007.5 |
| 20260505234518 | 74 | 150 | 0.0 | 4.3 | 0.00 | 0.00 | 0.00 | 30 | 1007.6 |
| 20260505233021 | 74 | 122 | 0.0 | 7.8 | 0.00 | 0.00 | 0.00 | 29 | 1007.4 |
| 20260505231512 | 74 | 89 | 0.0 | 0.0 | 0.00 | 0.00 | 0.00 | 26 | 1007.5 |
| 20260505230007 | 74 | 215 | 0.0 | 0.0 | 0.00 | 0.00 | 0.00 | 28 | 1007.6 |
| 20260505224601 | 73 | 157 | 0.0 | 0.0 | 0.00 | 0.00 | 0.00 | 18 | 1007.6 |
| 20260505223057 | 72 | 153 | 0.0 | 0.0 | 0.00 | 0.00 | 0.00 | 7 | 1007.7 |
| 20260505221559 | 72 | 142 | 0.0 | 7.0 | 0.00 | 0.00 | 0.00 | 18 | 1008.0 |
| 20260505220054 | 74 | 203 | 1.7 | 8.7 | 0.00 | 0.00 | 0.00 | 41 | 1008.3 |
| 20260505214543 | 75 | 231 | 2.6 | 10.4 | 0.00 | 0.00 | 0.00 | 53 | 1008.2 |
| 20260505213038 | 76 | 272 | 0.9 | 11.3 | 0.00 | 0.00 | 0.00 | 56 | 1008.2 |
| 20260505211535 | 76 | 227 | 1.7 | 12.2 | 0.00 | 0.00 | 0.00 | 57 | 1008.2 |
| 20260505210034 | 76 | 237 | 1.7 | 10.4 | 0.00 | 0.00 | 0.00 | 57 | 1008.2 |
| 20260505204526 | 75 | 179 | 0.9 | 13.0 | 0.00 | 0.00 | 0.00 | 57 | 1008.2 |
| 20260505203021 | 76 | 136 | 0.0 | 13.9 | 0.00 | 0.00 | 0.00 | 58 | 1008.4 |
| 20260505201517 | 76 | 139 | 0.0 | 14.8 | 0.00 | 0.00 | 0.00 | 58 | 1008.3 |
| 20260505200017 | 76 | 166 | 3.5 | 13.9 | 0.00 | 0.00 | 0.00 | 58 | 1008.5 |
| 20260505194508 | 75 | 194 | 3.5 | 11.3 | 0.00 | 0.00 | 0.00 | 58 | 1008.9 |
| 20260505193004 | 75 | 175 | 0.9 | 10.4 | 0.00 | 0.00 | 0.00 | 59 | 1009.1 |
| 20260505191609 | 75 | 124 | 3.5 | 13.9 | 0.00 | 0.00 | 0.00 | 59 | 1009.2 |
| 20260505190054 | 74 | 159 | 0.9 | 7.8 | 0.00 | 0.00 | 0.00 | 57 | 1009.2 |
| 20260505184549 | 74 | 207 | 0.0 | 7.8 | 0.00 | 0.00 | 0.00 | 56 | 1009.3 |
| 20260505183044 | 74 | 154 | 0.0 | 4.3 | 0.00 | 0.00 | 0.00 | 56 | 1009.4 |
| 20260505181546 | 73 | 131 | 0.0 | 2.6 | 0.00 | 0.00 | 0.00 | 57 | 1009.5 |
| 20260505180036 | 73 | 179 | 0.0 | 6.1 | 0.00 | 0.00 | 0.00 | 57 | 1009.9 |
| 20260505174531 | 74 | 105 | 0.0 | 6.1 | 0.00 | 0.00 | 0.00 | 58 | 1010.1 |
| 20260505173027 | 74 | 103 | 0.0 | 7.0 | 0.00 | 0.00 | 0.00 | 58 | 1010.3 |
| 20260505171523 | 74 | 103 | 0.0 | 6.1 | 0.00 | 0.00 | 0.00 | 58 | 1010.4 |
| 20260505170018 | 74 | 125 | 0.0 | 7.8 | 0.00 | 0.00 | 0.00 | 58 | 1010.6 |